Voltar ao catálogo

TITAN 3C TRANSTAGE DEB

AtivoLEO
NORAD 1680·DEBRIS·🇺🇸 United States

Lançado Oct 15, 1965 de Cape Canaveral Space Force Station

Loading…

Próximas Passagens (próximas 24 horas)

TLE

AtualizadoSource: Space-Track

Época: Sep 14, 2026, 14:07 UTC

1 01680U 65082AT  26257.58823920  .00000289  00000-0  45529-4 0  9993
2 01680  32.2570 354.3466 0020671 320.4060  39.5079 14.65781433226788

Acompanhe TITAN 3C TRANSTAGE DEB em tempo real com AllMySat

Download on the App Store